Flag for Peru Weather past 2 weeks in Arequipa, Arequipa, Peru

Now
48 °F

Clear.


Feels Like: 46 °F
Forecast: 46 / 68 °F
Wind: 5 mph from Northeast

Location: Arequipa Airport

Current Time: Jul 23, 2014 at 6:00:41 AM

Latest Report: Jul 23, 2014 at 5:00 AM


Visibility: 10 mi

Pressure: 30.30 "Hg

Humidity: 29%

Dew point: 18 °F

Location of ArequipaLocation

Historic Weather in Arequipa — Graph

°F

Arequipa temperature yesterday

Maximum temperature yesterday: 68 °F (at 11:00 AM)
Minimum temperature yesterday: 48 °F (at 4:00 AM)
Average temperature yesterday: 56 °F

Past Weeks' High & Low Weather Summary

 TemperatureHumidityPressure
High77 °F (Jul 12, 12:00 PM)64% (Jul 20, 9:00 AM)30.42 "Hg (Jul 20, 9:00 AM)
Low46 °F (Jul 21, 5:00 AM)7% (Jul 10, 9:00 AM)30.21 "Hg (Jul 11, 3:00 AM)
Average60 °F19%30.32 "Hg
* Reported Jul 8 5:00 AM — Jul 23 5:00 AM, Arequipa, Weather by CustomWeather, © 2014

Note: Actual official high and low records may vary slightly from our data, if they occured in-between our weather recording intervals... More about our weather records

Advertising

Arequipa weather history for previous 24 hours

 ConditionsComfort  
Time TempWeatherWind HumidityBarometerVisibility
5:00 AM
Jul 23
48 °FClear.5 mph29%30.30 "Hg10 mi
4:00 AM48 °FClear.6 mph29%30.30 "Hg10 mi
3:00 AM52 °FClear.8 mph26%30.27 "Hg10 mi
1:00 AM50 °FClear.7 mph30%30.33 "Hg10 mi
12:00 AM52 °FClear.3 mph26%30.33 "Hg10 mi
11:00 PM
Jul 22
50 °FClear.5 mph30%30.33 "Hg10 mi
10:00 PM52 °FClear.5 mph28%30.36 "Hg10 mi
9:00 PM52 °FClear.3 mph30%30.36 "Hg10 mi
8:00 PM52 °FClear.5 mph32%30.33 "Hg10 mi
7:00 PM54 °FClear.2 mph28%30.33 "Hg10 mi
12:00 PM66 °FPassing clouds.13 mph15%30.30 "HgN/A
11:00 AM68 °FPassing clouds.8 mph14%30.30 "HgN/A
10:00 AM66 °FSunny.8 mph15%30.33 "Hg10 mi
9:00 AM66 °FSunny.6 mph17%30.33 "Hg10 mi
8:00 AM63 °FSunny.14 mph15%30.30 "Hg10 mi
7:00 AM54 °FSunny.15 mph26%30.27 "Hg10 mi
6:00 AM52 °FClear.16 mph28%30.27 "Hg10 mi
Weather by CustomWeather, © 2014

See weather overviewHow to use our weather pages